Location: Chippewa Lake
(41.0698°N, 81.9010°W)
Time: 21:48:44
(UTC+00:00)

Cosmos 2344 - Pass Details

Date: 09 May 2021
Orbit: 1239 x 3003 km, 63.3° (Epoch: 16 June)

Event Time Altitude Azimuth Distance (km) Brightness Sun altitude
Rises 06:31:27 0° 324° (NW) 4,646 7.0 -29.4°
Reaches altitude 10° 06:34:04 10° 324° (NW) 3,812 6.4 -29.3°
Maximum altitude 06:43:49 87° 238° (WSW) 1,995 4.4 -28.6°
Drops below altitude 10° 06:57:34 10° 151° (SSE) 5,223 6.4 -27.6°
Sets 07:01:50 0° 151° (SSE) 6,435 6.9 -27.3°
